AirNav   Pilot Hours Calculator
 
 355 users online  

07S Beaumont Hotel Airport
Beaumont, Kansas, USA

GOING TO BEAUMONT?


FAA INFORMATION EFFECTIVE 05 NOVEMBER 2020

Location

FAA Identifier: 07S
Lat/Long: 37-39-33.4950N 096-31-39.6900W
37-39.558250N 096-31.661500W
37.6593042,-96.5276917
(estimated)
Elevation: 1617 ft. / 493 m (estimated)
Variation: 06E (1985)
Time zone: UTC -6 (UTC -5 during Daylight Saving Time)
Zip code: 67012

Airport Operations

Airport use: Open to the public
Activation date: 10/1960
Control tower: no
ARTCC: KANSAS CITY CENTER
FSS: WICHITA FLIGHT SERVICE STATION
NOTAMs facility: ICT (NOTAM-D service available)
Attendance: UNATNDD
Wind indicator: yes
Segmented circle: no

Airport Communications

CTAF: 122.9
WX AWOS-3P at EQA (15 nm NW): 120.875 (316-322-8095)
WX AWOS-3 at 13K (16 nm NE): 120.975 (620-583-2760)

Airport Services

Parking: tiedowns
Airframe service: NONE
Powerplant service: NONE
Bottled oxygen: NONE
Bulk oxygen: NONE

Runway Information

Runway 18/36

Dimensions: 2400 x 80 ft. / 732 x 24 m
Surface: turf, in good condition
Runway edge markings: RY 18/36 MKD WITH YELLOW CONES.
RUNWAY 18  RUNWAY 36
Latitude: 37-39.755500N37-39.361000N
Longitude: 096-31.641833W096-31.681167W
Elevation: 1614.0 ft.1587.0 ft.
Traffic pattern: leftright
Runway end identifier lights: nono
Obstructions: 20 ft. road, 450 ft. from runway, 22:1 slope to clear40 ft. tree, 497 ft. from runway, 90 ft. left of centerline, 13:1 slope to clear

Airport Ownership and Management from official FAA records

Ownership: Privately-owned
Owner: SJC IV LLC
730 NEW HAMPSHIRE, SUITE 206
LAWRENCE, KS 66044-2776
Phone 620-843-2422
Manager: JEANNE SQUIER
BEAUMONT HOTEL, 11651 SE MAIN
BEAUMONT, KS 67012
Phone 620-843-2422

Airport Operational Statistics

Aircraft operations: avg 38/week *
100% transient general aviation
* for 12-month period ending 25 September 2018

Additional Remarks

RY ENDS LINE OF SITE OBSTRUCTED BY TERRAIN.
WIND TURBINE FARM AND 420 FT TWR 3 MILES SSW.
4 FT BARB WIRE FENCE 260 FT FM APCH END RY18.
OCCASIONAL LARGE ROUND HAY BALES BOTH SIDES OF RUNWAY.
20 FT X 1200 FT PAVED TWY TO ACFT PRKG AT HOTEL/RESTAURANT
FOR CD CTC KANSAS CITY ARTCC AT 913-254-8508.
AFT HRS OR EMERG CALL 316-377-3085.

Instrument Procedures

There are no published instrument procedures at 07S.

Some nearby airports with instrument procedures:

KEQA - El Dorado/Captain Jack Thomas Memorial Airport (15 nm NW)
13K - Lt. William M. Milliken Airport (16 nm NE)
3AU - Augusta Municipal Airport (26 nm W)
1K1 - Lloyd Stearman Field Airport (29 nm W)
KBEC - Beech Factory Airport (33 nm W)
 
Loc | Ops | Rwys | IFR | FBO | Links
Com | Nav | Svcs | Stats | Notes
Area around 07S (Beaumont Hotel Airport)
 
Road maps at: MapQuest Bing Google
 
Aerial photo
WARNING: Photo may not be current or correct
Aerial photo of 07S (Beaumont Hotel Airport)
Photo by Scott Watson
Photo taken 12-Jul-2015
looking south at runway 18.

Do you have a better or more recent aerial photo of Beaumont Hotel Airport that you would like to share? If so, please send us your photo.

 
Sectional chart

 
Airport distance calculator
Flying to Beaumont Hotel Airport? Find the distance to fly.

From to 07S

Sunrise and sunset
Times for 01-Dec-2020
 Local
(UTC-6)
 Zulu
(UTC)
Morning civil twilight06:5612:56
Sunrise07:2413:24
Sunset17:0723:07
Evening civil twilight17:3623:36

Current date and time
Zulu (UTC)  01-Dec-2020 09:44:15
Local (UTC-6)  01-Dec-2020 03:44:15
 
METAR
KEQA 
15nm NW 
010935Z AUTO 17008KT 10SM CLR 01/M07 A2999 RMK AO2
K13K 
16nm NE 
010935Z AUTO 14007KT 10SM CLR M05/M08 A3004 RMK AO2 T10501083
K3AU 
26nm W 
010935Z AUTO 16008KT 10SM CLR 00/M07 A3000 RMK AO2
K1K1 
29nm W 
010935Z AUTO 17006KT 10SM CLR M01/M08 A2999 RMK AO2 T10061080
TAF
KIAB 
35nm W 
010200Z 0102/0208 17009KT 9999 SKC QNH2985INS BECMG 0123/0124 VRB06KT 9999 SKC QNH2990INS TX09/0121Z TNM04/0111Z
KICT 
43nm W 
010540Z 0106/0206 16008KT P6SM SKC FM012300 12004KT P6SM SCT250 FM020400 36004KT P6SM SCT250
NOTAMs
Click for the latest NOTAMs
NOTAMs are issued by the DoD/FAA and will open in a separate window not controlled by AirNav.

 

 
 

Where to Stay: Hotels, Motels, Resorts, B&Bs, Campgrounds

 The hotels featured here are reported to be very convenient to the Beaumont Hotel Airport. If your hotel/inn/B&B/resort is near the Beaumont Hotel Airport, provides convenient transportation, or is otherwise attractive to pilots, flight crews, and airport users, consider listing it here.
  
 Business Name 
 
 Contact 
 
 Services / Description 
 
Distance
 
Comments
  
Beaumont Hotel 620-843-2422
[web site]
[email]
[Reservations]
Aircraft parking (ramp or tiedown), Public telephone, Computerized weather, Internet access, Restrooms, Restaurant, Lodging, Attraction

More info about Beaumont Hotel
on airport  
   1 read write
Feature A Hotel
 

Would you like to see your business listed on this page?

 If your business provides an interesting product or service to pilots, flight crews, aircraft, or users of the Beaumont Hotel Airport, you should consider listing it here.  To start the listing process, click on the button below
 
Add a business
 

Other Pages about Beaumont Hotel Airport

Update a link
 
Copyright © AirNav, LLC. All rights reserved. Privacy Policy  Contact